TimeEST,TemperatureF,Dew PointF,Humidity,Sea Level PressureIn,VisibilityMPH,Wind Direction,Wind SpeedMPH,Gust SpeedMPH,PrecipitationIn,Events,Conditions,WindDirDegrees,DateUTC
12:53 AM,43.0,39.0,86,30.13,10.0,Calm,Calm,-,N/A,,Clear,0,2013-01-21 05:53:00
1:53 AM,45.0,39.0,80,30.12,10.0,Calm,Calm,-,N/A,,Clear,0,2013-01-21 06:53:00
2:53 AM,44.1,39.9,85,30.10,10.0,Calm,Calm,-,N/A,,Clear,0,2013-01-21 07:53:00
3:53 AM,42.1,37.9,85,30.09,10.0,Calm,Calm,-,N/A,,Clear,0,2013-01-21 08:53:00
4:53 AM,41.0,37.9,89,30.10,10.0,Calm,Calm,-,N/A,,Clear,0,2013-01-21 09:53:00
5:53 AM,41.0,37.0,86,30.10,10.0,Calm,Calm,-,N/A,,Clear,0,2013-01-21 10:53:00
6:53 AM,39.0,36.0,89,30.12,10.0,Calm,Calm,-,N/A,,Clear,0,2013-01-21 11:53:00
7:53 AM,39.0,36.0,89,30.14,10.0,Calm,Calm,-,N/A,,Partly Cloudy,0,2013-01-21 12:53:00
8:53 AM,48.0,41.0,77,30.15,10.0,Calm,Calm,-,N/A,,Mostly Cloudy,0,2013-01-21 13:53:00
9:53 AM,54.0,41.0,62,30.18,10.0,NNW,3.5,-,N/A,,Partly Cloudy,330,2013-01-21 14:53:00
10:53 AM,63.0,37.0,38,30.19,10.0,North,5.8,-,N/A,,Clear,350,2013-01-21 15:53:00
11:53 AM,64.9,35.1,33,30.16,10.0,North,10.4,-,N/A,,Clear,350,2013-01-21 16:53:00
12:53 PM,64.9,36.0,34,30.12,10.0,Calm,Calm,-,N/A,,Clear,0,2013-01-21 17:53:00
1:53 PM,68.0,34.0,28,30.09,10.0,NNW,9.2,-,N/A,,Clear,330,2013-01-21 18:53:00
2:53 PM,68.0,34.0,28,30.08,10.0,WNW,6.9,-,N/A,,Clear,300,2013-01-21 19:53:00
3:53 PM,66.9,32.0,27,30.07,10.0,WNW,6.9,-,N/A,,Clear,290,2013-01-21 20:53:00
4:53 PM,66.0,33.1,29,30.08,10.0,WNW,8.1,-,N/A,,Clear,300,2013-01-21 21:53:00
5:53 PM,63.0,35.1,35,30.09,10.0,NW,4.6,-,N/A,,Clear,310,2013-01-21 22:53:00
6:53 PM,54.0,37.9,55,30.11,10.0,Calm,Calm,-,N/A,,Clear,0,2013-01-21 23:53:00
7:53 PM,52.0,37.9,59,30.12,10.0,Calm,Calm,-,N/A,,Clear,0,2013-01-22 00:53:00
8:53 PM,46.9,37.9,71,30.13,10.0,Calm,Calm,-,N/A,,Clear,0,2013-01-22 01:53:00
9:53 PM,46.0,37.9,73,30.14,10.0,Calm,Calm,-,N/A,,Clear,0,2013-01-22 02:53:00
10:53 PM,51.1,39.0,63,30.16,10.0,NNW,5.8,-,N/A,,Clear,340,2013-01-22 03:53:00
11:53 PM,53.1,39.0,59,30.15,10.0,North,4.6,-,N/A,,Clear,350,2013-01-22 04:53:00